Voltar ao catálogo

STARLINK-35670

AtivoComunicaçõesVLEO
NORAD 66480·PAYLOAD·🇺🇸 United States

Lançado Nov 15, 2025 de Cape Canaveral Space Force Station

Loading…

Próximas Passagens (próximas 24 horas)

TLE

AtualizadoSource: CelesTrak SupGP

Época: Sep 15, 2026, 02:37 UTC

1 66480C 25262AA  26258.10951389  .00037299  00000+0  13509-2 0  2587
2 66480  43.0007 306.5548 0001382 266.7285 111.6446 15.27561218    13

Acompanhe STARLINK-35670 em tempo real com AllMySat

Download on the App Store